THOR ABLESTAR DEB, 1099

Orbit data source: Space-Track

THOR ABLESTAR DEB, 1099 is space debris in LEO originally from a launch on Sun, 13 Dec 1964 UTC launched from the Air Force Western Test Range (AFWTR). Debris objects in space refer to the collection of defunct objects orbiting the Earth. Examples of debris include non-operational satellites, rocket bodies, and fragments generated from explosions, collisions, or faulty payload assembly.

Loading next visibility...
Identifier
1099, 1964-083G
Orbit
LEO
Country
Flag of USUS
Related business
Manufacturer
Unknown
Mission
Spacecraft
Bus & Motor
Unknown
Mass
Unknown
Launch date (UTC)
1964-12-13 (62 years ago)
Launch vehicle
Unknown
Launch site
Air Force Western Test Range (AFWTR)
Object type
Payload
Rocket body
Debris
Shape & HBR
Unknown shape, 0.5 m
Radar Cross Section
Medium (>0.1 m² and <1 m²)

Expand to show TLE details & history
Last TLE update: 2 days ago

TLE from 2 days ago
0 THOR ABLESTAR DEB
1  1099U 64083G   26171.46058020  .00000145  00000-0  17201-3 0  9996
2  1099  89.8074 137.9473 0036596 274.8132 203.0612 13.62843896982853
Epoch: 2026-06-20T11:03Z
TLE epoch observation values (Epoch: 2026-06-20T11:03:14.129Z)
Latitude
62.37527°
Longitude
-116.90259°
Altitude
1,061.11 km
Speed
7.315 km/s
True Right ascension
21h 10m 19s
True Declination
62° 14' 22"
Sunlit
Object was in daylight at epoch
Visualization orbit readout
Latitude
Unknown
Longitude
Unknown
Altitude
Unknown
Speed
Unknown
Apparent Right ascension
Unknown
Apparent Declination
Unknown
Sunlit
N/A
Visualization observer readout
Local Sidereal Time
23:27:28
Azimuth
Unknown
Elevation
Unknown
Doppler factor
Unknown
Orbital elements
Apogee altitude
1,049.489 km
Perigee altitude
995.323 km
Semi-major axis
7,400.543 km
Eccentricity
0.00366
Inclination
89.8074°
RAAN
137.9473°
Arg. of periapsis
274.8132°
True anomaly
202.89762°
Mean anomaly
203.0612°
Eccentric anomaly
202.97934°
Mean motion
3.40916 °/min
Orbital period
105.6 mins
BSTAR
0.00017201
Loading maneuver chart data...
Computing Atmospheric mass density...

Documentation

Showing up to 5 results
|